Dewpoint
26 25 23 24 25 29 32 26 28 45 46 49 51 52 56 57 55 55 53 53 52 57 59 60 61 63 64 68 68 68 69 70 70 69 68 69 64 64 66 68 71 71 70 71
24 23 24 23 23 25 22 21 38 45 40 49 50 53 56 58 59 59 58 53 53 52 58 59 60 62 64 67 67 68 69 70 69 68 68 69 67 67 67 71 71 70 69 69
19 22 23 23 20 21 21 23 31 39 45 52 46 49 53 59 59 61 59 59 54 53 55 58 59 62 64 66 67 68 69 69 70 70 70 70 70 70 68 67 68 70 70 70
17 19 19 19 22 21 19 28 31 33 40 41 46 39 50 53 57 59 57 58 55 55 55 57 59 61 64 66 67 69 68 69 70 71 68 68 66 67 68 68 70 71 70 67
20 19 18 16 18 20 23 24 25 40 40 39 45 43 47 51 49 52 55 53 53 56 55 57 58 61 64 66 68 69 69 68 69 71 70 69 67 69 68 69 69 70 67 63
21 21 18 19 18 20 24 24 28 45 47 40 41 43 39 48 46 52 47 49 54 55 56 57 58 61 63 66 67 68 69 69 71 71 70 69 67 69 69 70 70 71 67 62
20 19 18 19 17 20 23 30 29 36 41 39 40 39 41 47 47 49 48 52 53 55 54 55 58 60 62 64 66 67 70 70 70 71 70 70 70 69 68 69 68 69 70 71
18 18 17 15 17 19 23 21 31 30 37 35 41 38 40 44 47 49 50 50 52 55 54 55 57 59 61 65 66 68 70 70 70 70 71 71 70 70 69 69 70 68 69 69
18 19 19 12 17 17 18 20 24 24 22 30 36 42 45 49 53 46 46 50 52 56 55 57 60 61 62 64 68 69 69 70 69 70 71 71 71 71 70 68 70 70 69 73
23 19 19 11 16 17 19 25 18 23 23 24 36 42 46 44 45 45 47 49 53 54 55 57 61 61 62 63 67 69 70 70 70 70 71 71 71 71 71 71 71 70 68 70
21 22 22 21 19 19 21 20 24 20 22 19 22 36 45 46 43 45 47 50 51 53 55 57 60 61 63 64 66 70 70 71 70 70 70 70 70 70 71 70 69 71 71 71
30 22 22 20 21 20 18 18 22 25 26 26 24 34 42 45 48 51 52 50 52 54 55 57 60 61 63 64 65 68 69 70 70 70 70 70 70 70 70 70 69 69 71 71
32 30 26 23 22 32 31 32 31 30 34 32 32 32 47 48 51 54 54 55 53 53 56 59 61 62 63 65 65 68 68 68 68 70 70 70 71 71 71 70 70 69 69 71
40 27 26 27 30 32 32 32 32 32 32 33 36 39 45 44 47 52 60 60 58 54 56 59 61 63 64 66 66 68 68 68 68 69 68 70 69 71 70 71 71 70 71 71
30 29 31 31 30 30 34 33 34 34 37 33 36 37 38 39 44 52 55 55 52 53 54 60 62 64 65 69 68 69 69 70 68 68 69 68 71 70 71 71 71 72 71 71
33 32 36 34 32 30 30 35 34 34 38 40 37 39 42 46 49 49 52 47 48 51 55 58 63 65 68 68 70 69 70 70 71 72 69 70 71 72 71 72 72 73 73 73
39 39 39 35 38 36 31 36 35 40 43 43 41 44 45 45 47 48 52 54 52 54 57 59 62 64 65 69 69 70 71 72 72 71 72 73 74 73 73 73 73 72 72 73
35 39 39 36 38 32 34 33 34 35 44 43 41 42 43 45 48 52 55 58 59 59 59 58 62 64 66 69 70 71 72 72 72 73 72 73 74 73 74 74 73 73 73 73
33 36 33 33 32 33 34 32 31 30 41 44 42 50 51 49 50 52 56 59 57 57 58 60 62 64 66 70 71 72 73 73 73 73 73 73 74 73 73 73 73 72 72 70
32 33 35 34 31 29 37 44 44 39 34 50 47 47 52 52 45 50 56 56 54 57 62 61 59 65 68 69 71 72 73 73 72 73 73 74 73 72 69 69 69 70 67 67
36 41 37 38 37 39 48 49 49 38 49 55 55 53 52 53 57 56 58 56 57 59 61 61 61 66 68 70 72 72 72 72 73 73 71 70 70 68 67 66 66 66 66 65
39 38 37 41 38 36 52 50 50 53 56 56 54 53 55 57 57 56 56 55 59 57 61 61 61 69 71 72 72 72 71 72 71 70 68 67 65 65 65 65 63 63 64 62
38 43 41 43 44 52 56 55 56 55 54 56 56 54 52 54 55 54 54 52 54 59 62 60 68 71 72 73 71 69 68 68 68 67 66 66 65 64 64 63 62 61 59 58
41 44 40 42 48 46 50 56 56 56 55 55 55 54 51 52 54 57 54 57 59 64 66 69 69 69 70 70 70 69 68 67 67 66 66 65 64 64 64 61 61 59 57 55
41 41 41 40 45 46 51 53 52 52 53 53 55 53 51 50 54 55 57 62 63 67 69 68 69 68 69 68 68 68 68 67 66 65 65 64 63 62 60 58 58 58 55 54
41 43 41 42 46 47 47 49 54 51 48 50 51 50 48 49 53 55 59 59 65 67 68 68 68 68 67 67 67 67 67 66 65 64 64 62 62 64 62 59 56 51 51 49
Lifted_Index
6 5 4 3 2 1 0 1 -0 -2 -3 -3 -3 -3 -3 -3 -3 -3 -3 -2 -2 -2 -2 -2 -2 -2 -2 -2 -1 -2 -2 -2 -2 -2 -1 -1 -0 0 -0 -1 -2 -3 -3 -2
5 5 4 3 1 0 0 0 -0 -2 -2 -3 -3 -3 -3 -3 -2 -2 -2 -2 -2 -2 -2 -2 -2 -2 -2 -2 -2 -1 -2 -2 -2 -2 -1 -1 -1 -0 -1 -2 -3 -3 -3 -2
5 4 3 2 1 0 0 0 -1 -1 -2 -2 -2 -2 -3 -3 -2 -2 -2 -2 -2 -2 -2 -2 -2 -2 -2 -2 -2 -2 -2 -2 -2 -2 -2 -2 -2 -1 -2 -2 -3 -3 -3 -3
4 4 3 1 1 0 0 -0 -1 -1 -1 -1 -1 -1 -2 -2 -1 -1 -1 -2 -2 -2 -2 -2 -2 -2 -3 -2 -2 -2 -2 -2 -2 -2 -2 -2 -2 -2 -2 -2 -3 -4 -3 -3
3 3 2 1 1 1 0 -0 -0 -1 -1 -1 -1 -1 -1 -1 -1 -0 -1 -1 -1 -2 -2 -2 -2 -2 -3 -3 -3 -2 -2 -2 -2 -3 -2 -2 -2 -2 -2 -3 -3 -3 -3 -3
3 3 2 2 2 1 0 0 -0 -0 -0 0 -0 -0 -1 -1 -0 -0 -0 -1 -1 -2 -2 -2 -3 -3 -3 -3 -3 -3 -3 -3 -3 -3 -3 -3 -2 -3 -3 -3 -3 -3 -3 -3
2 2 2 2 2 1 0 0 -0 -0 -0 -0 -0 -0 -0 -0 -0 -0 -1 -1 -1 -2 -2 -2 -3 -3 -3 -3 -3 -3 -3 -4 -3 -3 -3 -3 -3 -3 -3 -3 -3 -3 -4 -4
2 1 1 1 1 1 1 0 -0 -0 -0 -0 -0 -1 -1 -1 -1 -1 -1 -1 -2 -2 -2 -2 -3 -3 -3 -3 -3 -3 -4 -4 -4 -3 -3 -3 -3 -3 -3 -3 -3 -3 -4 -4
1 1 0 0 1 1 1 1 0 -0 -0 -0 -1 -1 -1 -1 -1 -1 -1 -2 -2 -2 -2 -2 -3 -3 -3 -3 -4 -4 -4 -4 -4 -4 -4 -4 -4 -4 -4 -3 -4 -4 -4 -4
0 0 -0 -0 0 1 1 1 0 -0 -0 -1 -1 -1 -1 -1 -1 -1 -2 -3 -3 -3 -3 -3 -3 -3 -3 -3 -4 -5 -5 -5 -4 -4 -4 -4 -4 -4 -4 -4 -4 -4 -4 -4
-0 -0 -0 -0 -0 0 0 0 0 -0 -0 -0 -1 -1 -1 -0 -0 -1 -2 -3 -3 -3 -3 -3 -3 -4 -3 -4 -4 -5 -5 -5 -5 -5 -5 -4 -4 -4 -4 -4 -4 -4 -4 -4
-0 -0 -0 -0 -0 -0 -0 -0 -0 -0 -0 -0 -0 -1 -1 -0 -0 -1 -2 -3 -3 -3 -3 -3 -4 -4 -4 -4 -4 -4 -5 -5 -5 -5 -5 -5 -5 -4 -4 -4 -4 -4 -4 -4
0 0 0 0 0 -0 -0 -0 -0 -0 0 -0 -0 -1 -1 -0 -0 -1 -2 -3 -3 -3 -4 -4 -4 -4 -4 -4 -4 -4 -4 -4 -5 -5 -5 -5 -5 -5 -5 -5 -4 -4 -4 -4
1 1 1 1 0 0 0 0 0 0 0 0 -0 -0 -0 -0 -1 -2 -3 -3 -3 -3 -3 -4 -4 -4 -4 -4 -4 -4 -4 -4 -4 -5 -5 -5 -5 -5 -5 -5 -5 -4 -4 -4
2 1 1 1 1 0 0 1 1 0 0 0 0 -0 -0 -0 -1 -1 -2 -2 -2 -2 -3 -4 -5 -5 -5 -5 -5 -5 -5 -5 -5 -5 -5 -5 -5 -5 -5 -5 -5 -5 -5 -4
2 1 1 1 1 0 0 1 1 1 0 0 0 0 0 -0 -1 -1 -1 -0 -1 -2 -3 -5 -5 -5 -6 -6 -6 -6 -6 -5 -5 -5 -5 -5 -5 -6 -6 -5 -5 -5 -5 -5
1 1 1 1 1 1 1 1 1 0 0 0 0 0 0 -0 -0 -1 -1 -1 -0 -1 -3 -5 -6 -6 -6 -6 -7 -6 -6 -6 -6 -6 -6 -7 -7 -7 -7 -6 -6 -6 -6 -6
0 0 1 1 1 1 1 1 0 0 0 1 0 -0 -1 -1 -1 -1 -1 -1 -1 -1 -3 -5 -6 -6 -7 -7 -7 -7 -7 -7 -7 -7 -8 -8 -8 -8 -8 -7 -7 -7 -7 -7
1 1 1 1 1 1 1 1 0 -0 -0 -0 -0 -1 -2 -1 -1 -1 -1 -1 -1 -1 -2 -4 -6 -7 -8 -8 -8 -8 -8 -8 -8 -8 -9 -9 -9 -8 -8 -8 -7 -7 -7 -6
1 1 1 1 1 1 1 0 -0 -1 -1 -2 -2 -2 -2 -2 -1 -1 -1 -1 -1 -1 -1 -3 -6 -7 -8 -9 -9 -9 -9 -9 -9 -9 -9 -9 -9 -8 -8 -7 -6 -6 -5 -5
1 1 1 0 0 0 0 -0 -1 -1 -2 -3 -3 -3 -2 -2 -1 -1 -1 -1 -0 -0 -1 -3 -5 -8 -9 -9 -9 -9 -9 -9 -9 -9 -9 -8 -8 -7 -6 -5 -4 -3 -3 -2
1 1 1 0 0 -0 -0 -1 -1 -1 -2 -2 -2 -2 -2 -2 -1 -1 -1 -0 -0 -0 -1 -2 -5 -9 -10 -10 -10 -9 -9 -9 -9 -9 -8 -8 -6 -5 -3 -2 -1 0 1 1
2 2 1 0 0 0 -0 -1 -1 -1 -1 -1 -1 -2 -2 -2 -2 -2 -2 -2 -1 -1 -2 -3 -7 -10 -10 -10 -9 -9 -8 -8 -8 -7 -6 -5 -4 -2 -1 0 1 2 3 4
2 2 2 1 0 0 -0 -1 -0 -0 -0 -0 -1 -1 -1 -1 -2 -2 -3 -4 -4 -4 -5 -7 -9 -10 -10 -9 -9 -8 -8 -7 -6 -5 -4 -3 -2 -1 0 1 2 2 4 5
2 2 2 2 1 1 0 -0 -0 0 0 0 -0 -0 -0 -1 -2 -2 -3 -5 -6 -7 -7 -8 -9 -9 -8 -8 -8 -8 -7 -5 -4 -3 -2 -1 -1 -0 1 1 1 2 3 4
3 3 3 2 2 1 1 0 0 0 1 1 0 0 -0 -1 -2 -2 -3 -5 -7 -7 -7 -7 -8 -8 -8 -8 -8 -7 -6 -4 -3 -3 -2 -1 -0 0 1 1 1 2 3 4